Simultaneous Nadir Overpasses (SNOs) Predictions

Prediction of SNOs between GOES-16 and METOP-B Satellite Orbit:

Table of predicted SNOs for the next 14.0 days since TLE Epoch: 1/26/2017
Index Date Time (GOES-16) GOES-16 Lat,Lon METOP-B Lat,Lon Distance(km) Time Diff (sec)
1 01/27/2017 15:32:13 -0.00, -89.49 0.21, -90.43 107.01 80
2 01/28/2017 15:14:13 0.00, -89.50 -0.88, -85.43 463.21 80
3 01/30/2017 03:30:32 -0.00, -89.48 -0.12, -90.02 61.60 80
4 02/01/2017 15:28:43 0.00, -89.53 0.04, -89.58 6.74 80
5 02/04/2017 03:29:42 -0.00, -89.53 0.06, -89.17 39.66 80
6 02/05/2017 15:45:53 -0.00, -89.57 0.94, -93.74 475.47 80
7 02/06/2017 15:27:54 -0.00, -89.58 -0.21, -88.75 95.14 80
8 02/08/2017 03:44:12 0.01, -89.57 -0.85, -93.33 429.20 80
9 02/09/2017 03:26:12 0.00, -89.58 0.31, -88.34 141.70 80




NCC Satellite Simultaneous Nadir Overpasses (SNOs) Prediction Service
